222  
ASUS43 KFSD 201110  
RWRFSD  
 
WEATHER ROUNDUP FOR SE SOUTH DAKOTA/SW MINNESOTA/NW IOWA  
NATIONAL WEATHER SERVICE SIOUX FALLS SD  
600 AM CDT SAT JUL 20 2024  
 
NOTE: "FAIR" INDICATES FEW OR NO CLOUDS BELOW 12,000 FEET WITH NO  
SIGNIFICANT WEATHER AND OR S TO VISIBILITY
.  
 
 
SDZ038>040-050-052>070-201200-  
SOUTHEAST SOUTH DAKOTA  
 
CITY SKY/WX TMP DP RH WIND PRES REMARKS
 
BROOKINGS FOG 63 62 97 CALM 30.11S VSB 1/4 TC 17  
CHAMBERLAIN FOG 62 62 100 CALM 30.10S VSB<1/4 TC 17  
HURON FOG 60 60 100 CALM 30.09S VSB 1/4 TC 16  
MADISON FOG 63 64 100 CALM 30.09S VSB 1/4 TC 17  
MITCHELL FOG 64 63 96 NW3 30.09R VSB 1/4 TC 18  
SIOUX FALLS FOG 60 59 96 NE5 30.08S VSB 3/4 TC 16  
WINNER CLEAR 59 57 93 W5 30.13R TC 15  
YANKTON CLOUDY 65 65 100 E3 30.08R FOG TC 18  

 
 
MNZ071-072-080-081-089-090-097-098-201200-  
SOUTHWEST MINNESOTA  
 
CITY SKY/WX TMP DP RH WIND PRES REMARKS
 
FAIRMONT CLOUDY 65 63 93 S5 30.11R TC 18  
LUVERNE CLEAR 61 61 100 CALM 30.10R FOG TC 16  
MARSHALL CLEAR 63 63 100 SW5 30.09S FOG TC 17  
MONTEVIDEO CLEAR 63 63 100 CALM 30.09R FOG TC 17  
REDWOOD FALLS CLOUDY 65 63 93 CALM 30.08R FOG TC 18  
TRACY CLOUDY 64 64 100 W6 30.09S FOG TC 18  
WINDOM CLOUDY 64 63 94 CALM 30.10R TC 18  
WORTHINGTON CLOUDY 65 65 100 SW3 30.11R TC 18  

 
 
IAZ001>003-012>014-020>022-031-032-NEZ013-014-SDZ071-201200-  
NORTHWEST IOWA  
 
CITY SKY/WX TMP DP RH WIND PRES REMARKS
 
CHEROKEE CLOUDY 66 64 94 S7 30.10R TC 19  
DENISON LGT RAIN N/A N/A N/A SW5 30.13R  
ESTHERVILLE RAIN 65 63 93 S7 30.10S TC 18  
LE MARS CLOUDY 66 66 100 S9 30.07S TC 19  
MAURICE CLOUDY 64 64 100 SE7 30.07R TC 18  
SHELDON CLOUDY 66 66 100 SE6 30.08R TC 19  
SIOUX CITY CLOUDY 65 64 97 SE8 30.09R TC 18  
SPENCER LGT RAIN 67 63 87 S3 30.10S TC 19  
STORM LAKE CLOUDY 64 64 100 SW7 30.11R TC 18  

 
 
ABBREVIATIONS USED IN REMARKS  
TC - TEMPERATURE IN CELSIUS  
WCI - WIND CHILL INDEX  
HX - HEAT INDEX  
VSB - VISIBILITY  
 
 
 
CLICK HERE TO GO TO PREVIOUS BULLETINS.

The Nexlab SD Page
The Nexlab IA Page
The Nexlab MN Page
The Nexlab NE Page Main Text Page